Home > Weather > Landeck > Past weeks

Flag for Austria Past Weather in Landeck, Tyrol, Austria — Yesterday and Last 2 Weeks

Now
57 °F

Cool.


Feels Like: 57 °F
Forecast: 55 / 87 °F
Wind: No wind

Location: Landeck

Current Time: Jul 28, 2016 at 6:53:27 AM

Latest Report: Jul 28, 2016 at 6:00 AM


Visibility: N/A

Pressure: 30.12 "Hg (27.43 "Hg at 784m altitude)

Humidity: 94%

Dew Point: 55 °F

Location of LandeckLocation

Past Weather in Landeck — Graph

°F

Landeck Temperature Yesterday

Maximum temperature yesterday: 77 °F (at 3:00 PM)
Minimum temperature yesterday: 58 °F (at 6:00 AM)
Average temperature yesterday: 64 °F

High & Low Weather Summary for the Past Weeks

 TemperatureHumidityPressure
High89 °F (Jul 20, 4:00 PM)95% (Jul 28, 5:00 AM)30.40 "Hg (Jul 28, 5:00 AM)
Low44 °F (Jul 16, 6:00 AM)20% (Jul 20, 4:00 PM)29.84 "Hg (Jul 20, 5:00 PM)
Average63 °F72%30.10 "Hg
* Reported Jul 13 5:00 AM — Jul 28 5:00 AM, Landeck, Weather by CustomWeather, © 2016

Note: Actual official high and low records may vary slightly from our data, if they occured in-between our weather recording intervals... More about our weather records

Advertising

Landeck Weather History for the Previous 24 Hours

Scroll right to see more
 ConditionsComfort  
Time TempWeatherWind HumidityBarometerVisibility
5:00 AM
Thu, Jul 28
57 °FCool.No wind95%30.12 "HgN/A
4:00 AM57 °FCool.2 mph94%30.12 "HgN/A
3:00 AM57 °FCool.2 mph94%30.12 "HgN/A
2:00 AM57 °FCool.2 mph94%30.13 "HgN/A
1:00 AM57 °FCool.No wind94%30.12 "HgN/A
12:00 AM58 °FCool.1 mph94%30.11 "HgN/A
11:00 PM
Wed, Jul 27
59 °FCool.1 mph92%30.12 "HgN/A
10:00 PM60 °FFog.2 mph93%30.10 "HgN/A
9:00 PM61 °FFog.1 mph92%30.09 "HgN/A
8:00 PM62 °FMild.1 mph90%30.06 "HgN/A
7:00 PM62 °FFog.1 mph90%30.06 "HgN/A
6:00 PM64 °FMild.1 mph86%30.05 "HgN/A
5:00 PM65 °FMild.No wind84%30.02 "HgN/A
4:00 PM64 °FMild.1 mph88%30.03 "HgN/A
3:00 PM77 °FMild.2 mph53%29.90 "HgN/A
2:00 PM75 °FPassing clouds.8 mph54%29.92 "Hg1 mi
1:00 PM76 °FMild.No wind48%29.94 "HgN/A
12:00 PM73 °FMild.No wind52%29.98 "HgN/A
11:00 AM70 °FMild.1 mph63%30.01 "HgN/A
10:00 AM65 °FMild.2 mph76%30.06 "HgN/A
8:00 AM60 °FCool.1 mph85%30.11 "HgN/A
7:00 AM58 °FCool.1 mph89%30.12 "HgN/A
6:00 AM58 °FCool.1 mph91%30.11 "HgN/A
Weather by CustomWeather, © 2016

See weather overviewHow to use our weather pages